Location: Chequamegon National Forest
(46.1070°N, 90.8420°W)
Time: 15:49:19
(UTC-05:00)

Amateur Radio Satellites - All Passes

Search period start: 26 March 2017 15:19
Search period end: 27 March 2017 15:19
Location: Chequamegon National Forest, 46.1070°N, 90.8420°W

Satellite Date Start Highest point End Downlink Frequencies (MHz)
Time Altitude Azimuth
SO-50 26 Mar 15:28:49 15:33:26 64° 122° (ESE) 15:37:58 436.795
DX 1 26 Mar 15:41:53 15:44:01 13° 301° (WNW) 15:46:08 434.975-435.025
AO-7 26 Mar 15:54:49 16:03:07 71° 254° (WSW) 16:11:27 .
RS-15 26 Mar 16:04:26 16:15:55 43° 331° (NNW) 16:27:33 29.354- 29.394
BEESAT 26 Mar 16:23:30 16:28:16 73° 287° (WNW) 16:32:59 436.000
KKS-1 26 Mar 16:24:42 16:26:31 12° 89° (E) 16:28:19 437.445
ITAMSAT 1 26 Mar 16:26:39 16:31:06 28° 265° (W) 16:35:35 435.822/435.867
O/OREOS (USA 219) 26 Mar 16:30:28 16:33:30 18° 100° (E) 16:36:33 437.305
CUTE-I 26 Mar 16:39:04 16:41:14 12° 53° (NE) 16:43:24 437.470
ITUPSAT 1 26 Mar 16:39:48 16:44:27 52° 289° (WNW) 16:49:03 437.325
PCSat 26 Mar 16:40:17 16:42:43 13° 26° (NNE) 16:45:09 145.827
MOZHAYETS 4 26 Mar 16:41:00 16:45:34 79° 103° (ESE) 16:50:07
XW-2B 26 Mar 16:59:20 17:00:13 11° 60° (ENE) 17:01:06 145.730 - 145.750
STARS 26 Mar 17:00:50 17:02:51 13° 89° (E) 17:04:53 437.465
XW-2C 26 Mar 17:08:21 17:10:18 14° 63° (ENE) 17:12:14 145.795 - 145.815
SO-50 26 Mar 17:10:31 17:14:16 24° 322° (NW) 17:18:00 436.795
CUBESAT XI-V 26 Mar 17:33:02 17:37:33 48° 99° (E) 17:42:03 437.345
DOVE 4 26 Mar 17:33:43 17:38:07 39° 68° (ENE) 17:42:47 437.250
AO-7 26 Mar 17:53:10 17:57:23 15° 274° (W) 18:01:36 .
XW-2F 26 Mar 17:58:20 18:01:57 44° 72° (ENE) 18:05:34 145.980 - 146.000
KKS-1 26 Mar 17:59:07 18:03:37 76° 286° (WNW) 18:08:05 437.445
LilacSat-2 26 Mar 17:59:39 18:03:21 50° 73° (ENE) 18:07:04 437.200
HO-68 26 Mar 17:59:50 18:05:12 24° 53° (NE) 18:10:34 435.675
BEESAT 26 Mar 18:04:07 18:05:11 11° 305° (NW) 18:06:14 436.000
O/OREOS (USA 219) 26 Mar 18:08:01 18:12:27 54° 299° (WNW) 18:16:58 437.305
CUTE-I 26 Mar 18:15:00 18:20:20 72° 72° (ENE) 18:25:43 437.470
YUBILEINY 26 Mar 18:18:00 18:26:04 40° 69° (ENE) 18:34:06 435.215
MOZHAYETS 4 26 Mar 18:19:50 18:22:07 14° 301° (WNW) 18:24:24
RS-15 26 Mar 18:21:56 18:32:40 32° 5° (N) 18:43:16 29.354- 29.394
PCSat 26 Mar 18:22:23 18:27:36 44° 49° (NE) 18:32:46 145.827
NUDT-PHONESAT 26 Mar 18:23:33 18:27:17 74° 75° (ENE) 18:31:02 437.300
XW-2D 26 Mar 18:24:05 18:27:54 85° 260° (W) 18:31:43 145.860 - 145.880
XW-2B 26 Mar 18:30:03 18:33:51 75° 258° (WSW) 18:37:40 145.730 - 145.750
KAITUO 1B 26 Mar 18:30:52 18:34:37 89° 252° (WSW) 18:38:23 145.475/437.950
STARS 26 Mar 18:35:16 18:39:42 70° 287° (WNW) 18:44:05 437.465
XW-2A 26 Mar 18:36:08 18:38:32 18° 66° (ENE) 18:40:54 145.665 - 145.685
XW-2C 26 Mar 18:40:20 18:44:04 55° 260° (W) 18:47:49 145.795 - 145.815
CUBEBUG 2 26 Mar 18:44:37 18:46:54 14° 59° (ENE) 18:49:11 437.445
SEEDS 26 Mar 18:53:50 18:56:41 18° 64° (ENE) 18:59:34 437.485
M-CUBED/EXP-1 PRIME 26 Mar 18:55:28 18:59:21 26° 100° (E) 19:03:16 437.505
CUTE 1.7 + AOD 2 26 Mar 18:59:51 19:03:32 30° 68° (ENE) 19:07:13 437.475
CUBESAT XI-V 26 Mar 19:11:06 19:14:37 22° 297° (WNW) 19:18:08 437.345
DOVE 4 26 Mar 19:11:57 19:15:56 27° 268° (W) 19:20:08 437.250
AO-73 26 Mar 19:22:02 19:22:21 10° 57° (ENE) 19:22:42 145.935
XW-2F 26 Mar 19:34:06 19:36:20 15° 269° (W) 19:38:34 145.980 - 146.000
LilacSat-2 26 Mar 19:35:57 19:37:56 14° 270° (W) 19:39:55 437.200
KKS-1 26 Mar 19:38:46 19:39:22 10° 304° (NW) 19:39:58 437.445
HO-68 26 Mar 19:44:59 19:52:09 84° 254° (WSW) 19:59:22 435.675
UWE-3 26 Mar 19:45:02 19:49:04 30° 67° (ENE) 19:53:04 435.000/436.395/437.385
CUTE-I 26 Mar 19:57:28 20:00:55 17° 270° (W) 20:04:25 437.470
STRAND 1 26 Mar 20:03:58 20:08:48 40° 98° (E) 20:13:34 437.568
PCSat 26 Mar 20:06:02 20:10:53 33° 249° (WSW) 20:15:41 145.827
XW-2A 26 Mar 20:07:58 20:11:05 31° 263° (W) 20:14:13 145.665 - 145.685
AAUSAT CUBESAT 2 26 Mar 20:11:58 20:16:00 58° 73° (ENE) 20:20:03 437.432
YUBILEINY 26 Mar 20:14:48 20:23:07 52° 271° (W) 20:31:25 435.215
Tancredo 1 26 Mar 20:17:28 20:18:22 11° 132° (SE) 20:19:17 437.200
CUBEBUG 2 26 Mar 20:18:05 20:22:51 87° 256° (WSW) 20:27:36 437.445
Oscar 11 26 Mar 20:18:12 20:21:55 29° 67° (ENE) 20:25:38 .
ISS 26 Mar 20:18:25 20:18:58 10° 131° (SE) 20:19:31 437.550
ZACube-1 26 Mar 20:25:14 20:29:32 43° 71° (ENE) 20:33:47 437.345
SEEDS 26 Mar 20:28:03 20:32:03 46° 261° (W) 20:36:05 437.485
M-CUBED/EXP-1 PRIME 26 Mar 20:29:31 20:33:51 41° 296° (WNW) 20:38:15 437.505
CUTE 1.7 + AOD 2 26 Mar 20:35:47 20:39:21 27° 265° (W) 20:42:57 437.475
RS-15 26 Mar 20:36:49 20:48:52 52° 37° (NE) 21:00:29 29.354- 29.394
AO-73 26 Mar 20:53:18 20:57:49 76° 74° (ENE) 21:02:17 145.935
AO-85 26 Mar 21:10:45 21:14:53 40° 120° (ESE) 21:18:46 145.980
UWE-3 26 Mar 21:21:13 21:25:26 33° 264° (W) 21:29:37 435.000/436.395/437.385
DELFI C3 26 Mar 21:30:05 21:33:51 48° 72° (ENE) 21:37:39 145.870
HO-68 26 Mar 21:36:41 21:40:54 16° 273° (W) 21:45:10 435.675
STRAND 1 26 Mar 21:43:26 21:47:50 29° 296° (WNW) 21:52:12 437.568
AAUSAT CUBESAT 2 26 Mar 21:49:47 21:51:51 13° 271° (W) 21:53:54 437.432
BEESAT 3 26 Mar 21:50:27 21:51:17 11° 108° (ESE) 21:52:08 437.485
Tancredo 1 26 Mar 21:50:50 21:53:58 72° 150° (SSE) 21:57:09 437.200
ISS 26 Mar 21:51:38 21:54:52 66° 149° (SSE) 21:58:08 437.550
Oscar 11 26 Mar 21:54:12 21:58:00 30° 265° (W) 22:01:48 .
CUBEBUG 2 26 Mar 21:59:07 22:00:07 11° 274° (W) 22:01:08 437.445
TIGRISAT 26 Mar 22:01:28 22:03:19 12° 88° (E) 22:05:10 435.000
ZACube-1 26 Mar 22:02:30 22:05:58 21° 267° (W) 22:09:26 437.345
UNISAT 6 26 Mar 22:10:51 22:13:46 17° 90° (E) 22:16:37 437.425
SO-50 26 Mar 22:17:57 22:21:27 21° 36° (NE) 22:24:55 436.795
AO-73 26 Mar 22:32:43 22:34:33 12° 272° (W) 22:36:24 145.935
ESTCUBE 1 26 Mar 22:39:09 22:42:43 24° 65° (ENE) 22:46:18 437.505/2401.250
RS-15 26 Mar 22:49:52 23:01:54 64° 244° (WSW) 23:13:24 29.354- 29.394
AO-85 26 Mar 22:51:41 22:55:22 27° 317° (NW) 22:58:54 145.980
PRISM 26 Mar 22:52:55 22:57:07 87° 103° (ESE) 23:01:17 437.425
SPROUT 26 Mar 22:59:18 23:00:28 11° 58° (ENE) 23:01:37 437.525
LO-87 26 Mar 23:00:22 23:03:55 64° 74° (ENE) 23:07:32 145.935 - 145.965
DELFI C3 26 Mar 23:06:42 23:08:56 15° 270° (W) 23:11:10 145.870
FO-29 26 Mar 23:23:48 23:29:46 52° 98° (E) 23:35:05 435.910
BEESAT 3 26 Mar 23:24:17 23:28:13 83° 304° (NW) 23:32:15 437.485
Tancredo 1 26 Mar 23:27:22 23:30:18 33° 349° (NNW) 23:33:16 437.200
ISS 26 Mar 23:28:27 23:31:31 36° 348° (NNW) 23:34:36 437.550
DX 1 26 Mar 23:28:55 23:30:27 12° 57° (ENE) 23:31:59 434.975-435.025
TIGRISAT 26 Mar 23:36:08 23:40:34 71° 286° (WNW) 23:44:52 435.000
AIST 2D 26 Mar 23:38:41 23:41:06 17° 93° (E) 23:43:30 435.315
BEESAT 2 26 Mar 23:40:33 23:44:27 60° 122° (ESE) 23:48:26 435.950
UNISAT 6 26 Mar 23:46:29 23:50:49 51° 289° (WNW) 23:55:01 437.425
VELOX 1 26 Mar 23:49:47 23:53:52 39° 69° (ENE) 23:58:00 145.980
50 SAT 26 Mar 23:55:48 23:58:35 23° 68° (ENE) 00:01:24 437.505
SO-50 26 Mar 23:57:53 00:02:23 72° 236° (SW) 00:06:50 436.795
UKube-1 27 Mar 00:06:35 00:09:39 19° 62° (ENE) 00:12:44 .
NANOSAT C BR1 27 Mar 00:08:12 00:11:31 22° 93° (E) 00:14:49 145.865
EO-79 27 Mar 00:12:46 00:16:23 27° 95° (E) 00:19:58 145.935-145.965
ESTCUBE 1 27 Mar 00:15:08 00:19:19 39° 262° (W) 00:23:33 437.505/2401.250
PRISM 27 Mar 00:30:32 00:31:45 11° 302° (WNW) 00:32:58 437.425
SPROUT 27 Mar 00:31:22 00:35:40 88° 81° (E) 00:40:01 437.525
POLYITAN 1 27 Mar 00:40:39 00:44:49 52° 100° (E) 00:48:56 437.675
QB50P2 27 Mar 00:45:15 00:49:29 64° 101° (E) 00:53:40 145.880/145.840
DUCHIFAT 1 27 Mar 00:56:54 01:01:07 66° 102° (ESE) 01:05:16 145.980
DX 1 27 Mar 01:01:35 01:05:56 89° 246° (WSW) 01:10:20 434.975-435.025
Tancredo 1 27 Mar 01:04:03 01:06:58 31° 9° (N) 01:09:53 437.200
BEESAT 3 27 Mar 01:04:08 01:06:28 15° 327° (NNW) 01:08:50 437.485
ISS 27 Mar 01:05:30 01:08:31 32° 8° (N) 01:11:32 437.550
RS-15 27 Mar 01:05:41 01:11:38 15° 267° (W) 01:17:29 29.354- 29.394
FO-29 27 Mar 01:09:25 01:14:27 27° 301° (WNW) 01:19:05 435.910
Oscar 19 27 Mar 01:10:59 01:12:57 12° 87° (E) 01:14:55 437.125/150
AIST 2D 27 Mar 01:11:17 01:14:25 31° 290° (WNW) 01:17:31 435.315
BUGSAT 1 27 Mar 01:11:49 01:15:36 32° 96° (E) 01:19:20 437.445
BEESAT 2 27 Mar 01:19:33 01:22:34 20° 322° (NW) 01:25:39 435.950
VELOX 1 27 Mar 01:26:56 01:30:27 23° 266° (W) 01:34:00 145.980
50 SAT 27 Mar 01:28:46 01:31:34 23° 265° (W) 01:34:25 437.505
Gurwin Techsat 1B 27 Mar 01:29:47 01:30:07 10° 85° (E) 01:30:27 435.225
UKube-1 27 Mar 01:41:11 01:45:21 48° 260° (W) 01:49:34 .
NANOSAT C BR1 27 Mar 01:43:27 01:47:21 37° 291° (WNW) 01:51:13 145.865
EO-79 27 Mar 01:48:24 01:52:09 31° 293° (WNW) 01:55:51 145.935-145.965
BEESAT 27 Mar 01:55:45 01:59:28 23° 63° (ENE) 02:03:12 436.000
MOZHAYETS 4 27 Mar 02:10:51 02:13:02 13° 59° (ENE) 02:15:13
ITUPSAT 1 27 Mar 02:11:41 02:15:52 31° 66° (ENE) 02:20:04 437.325
POLYITAN 1 27 Mar 02:17:26 02:20:12 17° 298° (WNW) 02:22:58 437.675
QB50P2 27 Mar 02:22:25 02:24:47 15° 299° (WNW) 02:27:08 145.880/145.840
DUCHIFAT 1 27 Mar 02:34:01 02:36:16 14° 300° (WNW) 02:38:31 145.980
O/OREOS (USA 219) 27 Mar 02:36:10 02:40:42 53° 61° (ENE) 02:45:12 437.305
Tancredo 1 27 Mar 02:40:09 02:43:22 90° 73° (ENE) 02:46:35 437.200
ISS 27 Mar 02:41:59 02:45:18 85° 28° (NNE) 02:48:36 437.550
BUGSAT 1 27 Mar 02:47:24 02:50:51 25° 294° (WNW) 02:54:15 437.445
Oscar 19 27 Mar 02:47:48 02:53:00 88° 104° (ESE) 02:58:12 437.125/150
ITAMSAT 1 27 Mar 02:59:05 03:00:46 11° 87° (E) 03:02:27 435.822/435.867
Gurwin Techsat 1B 27 Mar 03:05:37 03:10:58 75° 103° (ESE) 03:16:17 435.225
KKS-1 27 Mar 03:24:44 03:27:36 17° 61° (ENE) 03:30:29 437.445
BEESAT 27 Mar 03:32:21 03:36:57 47° 261° (W) 03:41:35 436.000
MOZHAYETS 4 27 Mar 03:44:57 03:49:33 83° 255° (WSW) 03:54:11
ITUPSAT 1 27 Mar 03:49:17 03:53:38 34° 263° (W) 03:58:00 437.325
AO-7 27 Mar 03:53:48 04:01:12 34° 96° (E) 04:08:32 .
STARS 27 Mar 03:59:29 04:02:24 17° 61° (ENE) 04:05:19 437.465
AO-85 27 Mar 04:00:13 04:02:07 13° 31° (NNE) 04:04:01 145.980
O/OREOS (USA 219) 27 Mar 04:16:31 04:19:41 19° 260° (W) 04:22:51 437.305
Tancredo 1 27 Mar 04:17:13 04:19:06 15° 225° (SW) 04:20:58 437.200
ISS 27 Mar 04:19:14 04:21:24 16° 225° (SW) 04:23:34 437.550
Oscar 19 27 Mar 04:28:44 04:31:37 15° 303° (WNW) 04:34:30 437.125/150
ITAMSAT 1 27 Mar 04:35:47 04:41:02 85° 105° (ESE) 04:46:13 435.822/435.867
CUBESAT XI-V 27 Mar 04:38:31 04:43:02 61° 73° (ENE) 04:47:35 437.345
Gurwin Techsat 1B 27 Mar 04:46:47 04:50:19 18° 302° (WNW) 04:53:51 435.225
KKS-1 27 Mar 04:59:17 05:03:42 60° 259° (WSW) 05:08:10 437.445
DOVE 4 27 Mar 05:32:37 05:33:38 10° 84° (E) 05:34:40 437.250
STARS 27 Mar 05:33:56 05:38:18 58° 258° (WSW) 05:42:42 437.465
AO-85 27 Mar 05:39:17 05:43:13 72° 52° (NE) 05:47:13 145.980
M-CUBED/EXP-1 PRIME 27 Mar 05:43:39 05:47:12 40° 63° (ENE) 05:51:03 437.505
AO-7 27 Mar 05:46:15 05:54:23 61° 296° (WNW) 06:02:28 .
STRAND 1 27 Mar 05:46:59 05:48:57 12° 54° (NE) 05:50:55 437.568
BEESAT 3 27 Mar 06:01:53 06:04:55 20° 38° (NE) 06:07:55 437.485
XW-2C 27 Mar 06:11:56 06:13:37 13° 90° (E) 06:15:16 145.795 - 145.815
ITAMSAT 1 27 Mar 06:16:45 06:19:48 16° 303° (WNW) 06:22:51 435.822/435.867
CUBESAT XI-V 27 Mar 06:18:06 06:20:50 16° 271° (W) 06:23:35 437.345
BEESAT 2 27 Mar 06:19:07 06:21:33 15° 33° (NNE) 06:23:58 435.950
NO-84 27 Mar 06:26:54 06:28:05 12° 129° (SE) 06:29:16 435.350 FM
CUTE-I 27 Mar 06:30:08 06:34:20 23° 92° (E) 06:38:31 437.470
XW-2F 27 Mar 07:01:55 07:05:32 45° 99° (E) 07:09:06 145.980 - 146.000
LilacSat-2 27 Mar 07:04:24 07:08:06 52° 100° (E) 07:11:46 437.200
DOVE 4 27 Mar 07:06:50 07:12:11 75° 102° (ESE) 07:17:25 437.250
HO-68 27 Mar 07:11:36 07:15:50 16° 87° (E) 07:20:03 435.675
M-CUBED/EXP-1 PRIME 27 Mar 07:19:13 07:21:53 18° 264° (W) 07:24:43 437.505
AO-85 27 Mar 07:21:30 07:23:04 12° 250° (WSW) 07:24:40 145.980
STRAND 1 27 Mar 07:22:07 07:27:16 74° 72° (ENE) 07:32:24 437.568
YUBILEINY 27 Mar 07:22:25 07:30:21 41° 86° (E) 07:38:15 435.215
NUDT-PHONESAT 27 Mar 07:25:24 07:29:06 73° 103° (ESE) 07:32:45 437.300
XW-2D 27 Mar 07:28:13 07:31:59 80° 284° (WNW) 07:35:43 145.860 - 145.880
XW-2A 27 Mar 07:28:35 07:30:05 12° 91° (E) 07:31:33 145.665 - 145.685
KAITUO 1B 27 Mar 07:33:31 07:37:14 88° 286° (WNW) 07:40:56 145.475/437.950
XW-2B 27 Mar 07:34:11 07:37:56 71° 285° (WNW) 07:41:39 145.730 - 145.750
BEESAT 3 27 Mar 07:38:53 07:42:53 63° 237° (WSW) 07:46:50 437.485
AO-7 27 Mar 07:40:39 07:45:32 17° 319° (NW) 07:50:26 .
XW-2C 27 Mar 07:44:29 07:48:09 52° 286° (WNW) 07:51:47 145.795 - 145.815
BEESAT 2 27 Mar 07:55:53 07:59:59 82° 55° (NE) 08:04:01 435.950
NO-84 27 Mar 08:02:23 08:05:13 68° 328° (NNW) 08:08:05 435.350 FM
CUBEBUG 2 27 Mar 08:07:48 08:10:36 16° 90° (E) 08:13:19 437.445
SEEDS 27 Mar 08:09:28 08:12:50 23° 94° (E) 08:16:13 437.485
CUTE-I 27 Mar 08:09:29 08:14:42 53° 290° (WNW) 08:19:52 437.470
CUTE 1.7 + AOD 2 27 Mar 08:17:13 08:21:14 41° 98° (E) 08:25:14 437.475
XW-2F 27 Mar 08:37:06 08:39:20 15° 296° (WNW) 08:41:34 145.980 - 146.000
LilacSat-2 27 Mar 08:40:01 08:41:58 14° 297° (WNW) 08:43:56 437.200
AO-73 27 Mar 08:41:04 08:42:26 11° 88° (E) 08:43:47 145.935
DOVE 4 27 Mar 08:45:42 08:49:15 18° 300° (WNW) 08:52:45 437.250
HO-68 27 Mar 08:57:23 09:04:36 83° 106° (ESE) 09:11:48 435.675
XW-2A 27 Mar 08:59:52 09:03:05 41° 288° (WNW) 09:06:16 145.665 - 145.685
TIGRISAT 27 Mar 09:01:51 09:04:56 18° 62° (ENE) 09:08:01 435.000
NUDT-PHONESAT 27 Mar 09:02:05 09:02:27 10° 300° (WNW) 09:02:49 437.300
STRAND 1 27 Mar 09:03:58 09:06:59 16° 271° (W) 09:10:01 437.568
PCSat 27 Mar 09:07:47 09:11:50 22° 107° (ESE) 09:15:54 145.827
UWE-3 27 Mar 09:08:01 09:12:07 41° 98° (E) 09:16:07 435.000/436.395/437.385
UNISAT 6 27 Mar 09:11:36 09:15:14 23° 64° (ENE) 09:18:51 437.425
YUBILEINY 27 Mar 09:18:34 09:26:59 50° 287° (WNW) 09:35:25 435.215
AAUSAT CUBESAT 2 27 Mar 09:26:37 09:30:48 78° 104° (ESE) 09:34:57 437.432
BEESAT 2 27 Mar 09:35:49 09:37:07 11° 251° (WSW) 09:38:24 435.950
FO-29 27 Mar 09:36:47 09:43:44 38° 64° (ENE) 09:50:13 435.910
Oscar 11 27 Mar 09:38:10 09:42:15 40° 98° (E) 09:46:17 .
NO-84 27 Mar 09:41:08 09:43:12 18° 348° (NNW) 09:45:18 435.350 FM
CUBEBUG 2 27 Mar 09:43:15 09:47:35 53° 288° (WNW) 09:51:45 437.445
PRISM 27 Mar 09:44:16 09:48:19 86° 75° (ENE) 09:52:27 437.425
SEEDS 27 Mar 09:44:48 09:48:36 34° 291° (WNW) 09:52:24 437.485
ZACube-1 27 Mar 09:47:00 09:51:14 64° 101° (E) 09:55:21 437.345
CUTE 1.7 + AOD 2 27 Mar 09:53:41 09:56:49 21° 295° (WNW) 09:59:56 437.475
AO-73 27 Mar 10:14:59 10:19:12 71° 286° (WNW) 10:23:20 145.935
AIST 2D 27 Mar 10:17:09 10:18:09 11° 62° (ENE) 10:19:10 435.315
TIGRISAT 27 Mar 10:36:31 10:41:10 62° 259° (W) 10:45:48 435.000
DELFI C3 27 Mar 10:39:02 10:42:59 57° 100° (E) 10:46:54 145.870
UWE-3 27 Mar 10:45:03 10:48:19 21° 296° (WNW) 10:51:30 435.000/436.395/437.385
HO-68 27 Mar 10:46:09 10:51:34 24° 306° (NW) 10:56:58 435.675
UNISAT 6 27 Mar 10:47:09 10:51:40 46° 261° (W) 10:56:09 437.425
PCSat 27 Mar 10:49:23 10:54:45 63° 306° (NW) 11:00:10 145.827
NANOSAT C BR1 27 Mar 11:02:34 11:05:59 24° 65° (ENE) 11:09:25 145.865
AAUSAT CUBESAT 2 27 Mar 11:04:06 11:05:39 12° 300° (WNW) 11:07:13 437.432
EO-79 27 Mar 11:07:23 11:11:03 28° 67° (ENE) 11:14:44 145.935-145.965
RS-15 27 Mar 11:08:42 11:15:53 18° 95° (E) 11:23:09 29.354- 29.394
Oscar 11 27 Mar 11:14:50 11:18:08 22° 295° (WNW) 11:21:27 .
NO-84 27 Mar 11:19:37 11:21:36 16° 9° (N) 11:23:39 435.350 FM
FO-29 27 Mar 11:20:55 11:28:31 54° 261° (W) 11:35:39 435.910
YUBILEINY 27 Mar 11:23:55 11:26:26 11° 313° (NW) 11:28:59 435.215
ZACube-1 27 Mar 11:24:42 11:27:00 14° 299° (WNW) 11:29:16 437.345
POLYITAN 1 27 Mar 11:35:10 11:39:21 54° 72° (ENE) 11:43:33 437.675
QB50P2 27 Mar 11:39:46 11:44:01 65° 73° (ENE) 11:48:17 145.880/145.840
AIST 2D 27 Mar 11:47:24 11:50:54 61° 260° (W) 11:54:25 435.315
DUCHIFAT 1 27 Mar 11:50:36 11:54:49 66° 74° (ENE) 11:59:04 145.980
LO-87 27 Mar 11:58:13 12:01:50 56° 100° (E) 12:05:25 145.935 - 145.965
BUGSAT 1 27 Mar 12:03:35 12:07:21 32° 68° (ENE) 12:11:10 437.445
ESTCUBE 1 27 Mar 12:04:42 12:08:50 34° 97° (E) 12:12:57 437.505/2401.250
DELFI C3 27 Mar 12:15:08 12:17:20 14° 298° (WNW) 12:19:31 145.870
SPROUT 27 Mar 12:16:21 12:18:13 13° 89° (E) 12:20:06 437.525
Oscar 19 27 Mar 12:29:19 12:33:23 24° 62° (ENE) 12:37:28 437.125/150
PCSat 27 Mar 12:35:52 12:39:16 16° 328° (NNW) 12:42:39 145.827
NANOSAT C BR1 27 Mar 12:37:34 12:41:31 36° 263° (W) 12:45:29 145.865
EO-79 27 Mar 12:42:59 12:46:45 30° 264° (W) 12:50:32 145.935-145.965
DX 1 27 Mar 12:48:48 12:50:55 13° 89° (E) 12:53:01 434.975-435.025
50 SAT 27 Mar 12:50:25 12:52:53 18° 94° (E) 12:55:20 437.505
Gurwin Techsat 1B 27 Mar 12:50:58 12:55:06 24° 61° (ENE) 12:59:14 435.225
NO-84 27 Mar 12:56:46 12:59:42 44° 29° (NNE) 13:02:52 435.350 FM
AO-7 27 Mar 13:07:24 13:12:12 17° 41° (NE) 13:16:59 .
POLYITAN 1 27 Mar 13:12:51 13:15:28 16° 269° (W) 13:18:06 437.675
VELOX 1 27 Mar 13:13:06 13:17:30 54° 100° (E) 13:21:52 145.980
RS-15 27 Mar 13:14:03 13:25:56 70° 118° (ESE) 13:38:11 29.354- 29.394
QB50P2 27 Mar 13:18:12 13:20:15 13° 271° (W) 13:22:18 145.880/145.840
UKube-1 27 Mar 13:25:57 13:29:23 22° 94° (E) 13:32:48 .
DUCHIFAT 1 27 Mar 13:28:58 13:30:56 13° 271° (W) 13:32:54 145.980
LO-87 27 Mar 13:33:14 13:34:50 13° 298° (WNW) 13:36:27 145.935 - 145.965
BUGSAT 1 27 Mar 13:39:11 13:42:44 26° 265° (W) 13:46:19 437.445
ESTCUBE 1 27 Mar 13:41:43 13:45:31 27° 294° (WNW) 13:49:19 437.505/2401.250
SPROUT 27 Mar 13:50:19 13:54:36 68° 286° (WNW) 13:58:51 437.525
Oscar 19 27 Mar 14:07:27 14:12:24 50° 260° (W) 14:17:24 437.125/150
SO-50 27 Mar 14:15:21 14:18:42 20° 112° (ESE) 14:22:02 436.795
ITAMSAT 1 27 Mar 14:18:10 14:22:23 25° 62° (ENE) 14:26:37 435.822/435.867
50 SAT 27 Mar 14:22:51 14:26:01 31° 290° (WNW) 14:29:09 437.505
DX 1 27 Mar 14:23:11 14:27:34 68° 287° (WNW) 14:31:55 434.975-435.025
Gurwin Techsat 1B 27 Mar 14:29:28 14:34:41 56° 259° (W) 14:39:56 435.225
NO-84 27 Mar 14:34:28 14:37:09 25° 225° (SW) 14:40:00 435.350 FM
VELOX 1 27 Mar 14:50:30 14:53:33 18° 298° (WNW) 14:56:36 145.980
AO-7 27 Mar 14:55:13 15:03:19 59° 63° (ENE) 15:11:25 .
UKube-1 27 Mar 15:01:30 15:05:32 38° 291° (WNW) 15:09:33 .
